Salem, IL

9:57 PM CST on December 15, 2017 (GMT -0600)
Salem-Leckrone

Weather History for KSLO - March, 2013

Change the Weather History Date:

Sunday, March 24, 2013

  Actual Average Record
Temperature  
Mean Temperature 38 °F -  
Max Temperature 43 °F 56 °F 81 °F (1967)
Min Temperature 32 °F 34 °F -2 °F (1974)
Degree Days  
Heating Degree Days 27    
Moisture  
Dew Point 34 °F    
Average Humidity 97    
Maximum Humidity 100    
Minimum Humidity 61    
Precipitation  
Precipitation 0.39 in - - ()
Sea Level Pressure  
Sea Level Pressure 29.63 in    
Wind  
Wind Speed 11 mph (North)    
Max Wind Speed 23 mph    
Max Gust Speed 32 mph    
Visibility 3 miles    
Events Rain , Snow , Thunderstorm    
Averages and records for this station are not official NWS values.
T = Trace of Precipitation, MM = Missing Value Source: NWS Daily Summary

Daily Weather History Graph

Daily Weather History Graph

Search for Another Location

Airport or City:

Trip Planner

Search our weather history database for the weather conditions in past years. The results will help you decide how hot, cold, wet, or windy it might be!

Date:

Astronomy

Mar. 24, 2013 Rise Set
Actual Time 6:52 AM CDT 7:11 PM CDT
Civil Twilight 6:26 AM CDT 7:38 PM CDT
Nautical Twilight 5:55 AM CDT 8:09 PM CDT
Astronomical Twilight 5:23 AM CDT 8:41 PM CDT
Moon 4:41 PM CDT (3/24) 5:01 AM CDT (3/24)
Length of Visible Light 13h 12m
Length of Day
12h 19m
Waxing Gibbous, 92% of the Moon is Illuminated
Mar 24
Waxing Gibbous
Mar 27
Full
Apr 2
Last Quarter
Apr 10
New
Apr 18
First Quarter

Hourly Weather History & Observations

Time (CDT) Temp. Windchill Dew Point Humidity Pressure Visibility Wind Dir Wind Speed Gust Speed Precip Events Conditions
12:15 AM 44.6 °F 39.7 °F 32.0 °F 61% 29.83 in 10.0 mi NE 9.2 mph - N/A   Overcast
12:35 AM 44.1 °F 39.5 °F 31.8 °F 62% 29.83 in 10.0 mi NE 8.1 mph - N/A   Overcast
12:55 AM 43.9 °F 39.3 °F 32.0 °F 63% 29.83 in 10.0 mi ENE 8.1 mph 16.1 mph N/A Rain Rain
1:15 AM 43.0 °F 38.8 °F 32.7 °F 67% 29.84 in 10.0 mi NE 6.9 mph - N/A Rain Light Rain
1:35 AM 41.7 °F 34.1 °F 33.4 °F 72% 29.86 in 7.0 mi ENE 15.0 mph 20.7 mph N/A Rain Rain
1:55 AM 39.4 °F 31.8 °F 35.2 °F 85% 29.85 in 4.0 mi NE 12.7 mph 18.4 mph 0.02 in Rain Light Rain
2:15 AM 38.3 °F 30.9 °F 35.4 °F 89% 29.84 in 3.0 mi NE 11.5 mph - 0.02 in Rain Light Rain
2:35 AM 37.4 °F 30.3 °F 35.6 °F 93% 29.83 in 4.0 mi NE 10.4 mph - 0.02 in Rain Light Rain
2:55 AM 36.0 °F 29.0 °F 34.9 °F 96% 29.83 in 4.0 mi NE 9.2 mph 16.1 mph 0.03 in Rain Light Rain
3:15 AM 34.9 °F 28.3 °F 34.5 °F 99% 29.82 in 2.0 mi NNE 8.1 mph - 0.02 in Snow Light Snow
3:35 AM 34.7 °F 26.4 °F 34.7 °F 100% 29.80 in 2.5 mi NE 11.5 mph - 0.02 in   Overcast
3:55 AM 34.7 °F 25.9 °F 34.7 °F 100% 29.77 in 2.5 mi NE 12.7 mph 18.4 mph 0.02 in Snow Light Snow
4:15 AM 34.7 °F 25.5 °F 34.7 °F 100% 29.76 in 3.0 mi NE 13.8 mph 19.6 mph N/A   Overcast
4:35 AM 34.7 °F 26.9 °F 34.7 °F 100% 29.76 in 4.0 mi NE 10.4 mph 20.7 mph N/A   Overcast
4:55 AM 34.7 °F 26.4 °F 34.7 °F 100% 29.76 in 5.0 mi NNE 11.5 mph 17.3 mph N/A   Overcast
5:15 AM 34.9 °F 28.3 °F 34.9 °F 100% 29.76 in 5.0 mi NE 8.1 mph - N/A   Overcast
5:35 AM 34.9 °F 27.1 °F 34.9 °F 100% 29.75 in 2.5 mi NE 10.4 mph - N/A   Drizzle
5:55 AM 34.9 °F 26.2 °F 34.9 °F 100% 29.71 in 3.0 mi NE 12.7 mph 20.7 mph N/A   Drizzle
6:15 AM 34.9 °F 27.7 °F 34.9 °F 100% 29.72 in 3.0 mi NE 9.2 mph 16.1 mph N/A   Light Drizzle
6:35 AM 35.1 °F 27.9 °F 35.1 °F 100% 29.71 in 3.0 mi NE 9.2 mph - N/A   Overcast
6:55 AM 35.1 °F 28.6 °F 35.1 °F 100% 29.72 in 4.0 mi NE 8.1 mph - N/A   Overcast
7:15 AM 35.1 °F 27.4 °F 35.1 °F 100% 29.70 in 4.0 mi NE 10.4 mph - N/A   Overcast
7:35 AM 35.1 °F 26.4 °F 35.1 °F 100% 29.67 in 3.0 mi NE 12.7 mph 18.4 mph N/A   Overcast
7:55 AM 35.1 °F 27.4 °F 35.1 °F 100% 29.67 in 3.0 mi ENE 10.4 mph 17.3 mph N/A   Overcast
8:15 AM 35.2 °F 28.1 °F 35.1 °F 99% 29.65 in 4.0 mi ENE 9.2 mph - N/A   Overcast
8:35 AM 35.6 °F 28.0 °F 35.1 °F 98% 29.65 in 4.0 mi NE 10.4 mph 18.4 mph N/A   Overcast
8:55 AM 35.6 °F 27.5 °F 35.1 °F 98% 29.65 in 4.0 mi ENE 11.5 mph 17.3 mph N/A   Overcast
9:15 AM 35.6 °F 28.6 °F 35.1 °F 98% 29.62 in 3.0 mi East 9.2 mph 18.4 mph N/A   Overcast
9:35 AM 35.6 °F 27.5 °F 34.9 °F 97% 29.59 in 1.5 mi ENE 11.5 mph 20.7 mph 0.02 in Rain Light Rain
9:55 AM 35.6 °F 25.2 °F 35.2 °F 99% 29.53 in 2.5 mi ENE 18.4 mph 28.8 mph 0.02 in Rain Light Rain
10:15 AM 36.1 °F 26.2 °F 35.8 °F 99% 29.50 in 3.0 mi ENE 17.3 mph 24.2 mph N/A   Light Drizzle
10:35 AM 36.5 °F 27.8 °F 35.8 °F 97% 29.49 in 3.0 mi ENE 13.8 mph 26.5 mph N/A   Overcast
10:55 AM 36.9 °F 30.1 °F 35.6 °F 95% 29.54 in 4.0 mi East 9.2 mph - N/A Thunderstorm Overcast
11:15 AM 36.7 °F 29.4 °F 35.2 °F 95% 29.50 in 2.0 mi ENE 10.4 mph 18.4 mph 0.01 in Rain Rain
11:35 AM 36.5 °F 30.3 °F 35.4 °F 96% 29.56 in 1.5 mi West 8.1 mph - 0.06 in Thunderstorm Thunderstorm
12:15 PM 34.0 °F 28.0 °F 34.0 °F 100% 29.54 in 0.2 mi NNW 6.9 mph - 0.05 in Snow Snow
12:35 PM 34.2 °F 29.0 °F 34.2 °F 100% 29.54 in 0.5 mi North 5.8 mph - 0.09 in Snow , Thunderstorm Light Thunderstorms and Snow
12:55 PM 34.2 °F 28.2 °F 34.2 °F 100% 29.54 in 0.8 mi NNW 6.9 mph - 0.10 in Snow Light Snow
1:15 PM 34.2 °F 26.2 °F 34.2 °F 100% 29.50 in 1.2 mi North 10.4 mph - N/A Snow Light Snow
1:35 PM 34.0 °F 25.5 °F 34.0 °F 100% 29.50 in 1.2 mi North 11.5 mph - 0.01 in Snow Light Snow
1:55 PM 33.8 °F 27.0 °F 33.8 °F 100% 29.50 in 1.0 mi NNW 8.1 mph - N/A Snow Light Snow
2:15 PM 34.0 °F 26.6 °F 34.0 °F 100% 29.50 in 0.5 mi North 9.2 mph - 0.03 in Snow Light Snow
2:35 PM 34.2 °F 26.2 °F 34.2 °F 100% 29.48 in 1.0 mi North 10.4 mph - 0.05 in Snow Light Snow
2:55 PM 34.3 °F 26.5 °F 34.3 °F 100% 29.48 in 1.0 mi NNW 10.4 mph - 0.05 in Snow Light Snow
3:15 PM 34.2 °F 26.2 °F 34.2 °F 100% 29.48 in 1.5 mi North 10.4 mph - N/A Snow Light Snow
3:35 PM 34.3 °F 27.0 °F 34.3 °F 100% 29.48 in 3.0 mi North 9.2 mph - N/A Snow Light Snow
3:55 PM 34.7 °F 26.9 °F 34.7 °F 100% 29.48 in 5.0 mi North 10.4 mph - N/A Snow Light Snow
4:15 PM 34.7 °F 26.9 °F 34.7 °F 100% 29.48 in 2.5 mi North 10.4 mph - N/A Snow Light Snow
4:35 PM 34.7 °F 26.9 °F 34.7 °F 100% 29.48 in 1.5 mi North 10.4 mph - 0.01 in Snow Light Snow
4:55 PM 34.5 °F 27.3 °F 34.5 °F 100% 29.49 in 1.0 mi NNW 9.2 mph - 0.01 in Snow Light Snow
5:15 PM 34.5 °F 26.2 °F 34.5 °F 100% 29.48 in 2.5 mi North 11.5 mph - 0.06 in Snow Light Snow
5:35 PM 34.7 °F 24.7 °F 34.7 °F 100% 29.49 in 2.5 mi North 16.1 mph - 0.06 in Snow Light Snow
5:55 PM 34.2 °F 25.7 °F 34.2 °F 100% 29.50 in 2.5 mi NNW 11.5 mph - 0.06 in Snow Light Snow
6:15 PM 34.0 °F 24.6 °F 33.8 °F 99% 29.52 in 2.5 mi WNW 13.8 mph 20.7 mph N/A Snow Light Snow
6:35 PM 33.4 °F 23.5 °F 33.4 °F 100% 29.54 in 0.2 mi WNW 15.0 mph 23.0 mph N/A Snow Snow
6:55 PM 33.1 °F 22.2 °F 33.1 °F 100% 29.55 in 0.5 mi NW 17.3 mph 24.2 mph 0.01 in Snow Snow
7:15 PM 32.9 °F 21.3 °F 32.9 °F 100% 29.57 in 0.2 mi NW 19.6 mph 27.6 mph N/A Snow Snow
7:35 PM 32.9 °F 21.3 °F 32.9 °F 100% 29.58 in 0.8 mi NW 19.6 mph 24.2 mph N/A Snow Snow
7:55 PM 32.9 °F 20.4 °F 32.9 °F 100% 29.59 in 0.8 mi NNW 23.0 mph 32.2 mph N/A Snow Snow
8:15 PM 32.9 °F 21.3 °F 32.9 °F 100% 29.60 in 0.8 mi NW 19.6 mph 31.1 mph N/A Snow Snow
8:35 PM 32.9 °F 20.7 °F 32.9 °F 100% 29.61 in 1.0 mi NW 21.9 mph 32.2 mph N/A Snow Snow
8:55 PM 32.9 °F 21.0 °F 32.9 °F 100% 29.62 in 1.2 mi NW 20.7 mph - N/A Snow Light Snow
9:15 PM 32.9 °F 20.4 °F 32.9 °F 100% 29.63 in 1.0 mi NW 23.0 mph 28.8 mph N/A Snow Light Snow
9:35 PM 32.9 °F 21.3 °F 32.9 °F 100% 29.65 in 1.0 mi NW 19.6 mph 27.6 mph N/A Snow Snow
9:55 PM 32.9 °F 21.0 °F 32.9 °F 100% 29.66 in 1.8 mi NW 20.7 mph 27.6 mph N/A Snow Light Snow
10:15 PM 32.9 °F 21.6 °F 32.9 °F 100% 29.67 in 2.0 mi NW 18.4 mph 23.0 mph N/A Snow Light Snow
10:35 PM 32.9 °F 22.4 °F 32.9 °F 100% 29.67 in 3.0 mi NW 16.1 mph 26.5 mph N/A Snow Light Snow
10:55 PM 33.8 °F 22.8 °F 33.8 °F 100% 29.68 in 2.5 mi NW 18.4 mph 21.9 mph N/A Snow Light Snow
11:15 PM 33.1 °F 21.9 °F 32.9 °F 99% 29.69 in 2.0 mi NW 18.4 mph 24.2 mph N/A Snow Light Snow
11:35 PM 32.9 °F 21.6 °F 32.9 °F 100% 29.70 in 2.0 mi NW 18.4 mph 25.3 mph N/A Snow Light Snow
11:55 PM 33.1 °F 21.9 °F 33.1 °F 100% 29.71 in 1.8 mi NW 18.4 mph 25.3 mph N/A Snow Light Snow